Crockett, TX

10:16 AM CST on January 18, 2018 (GMT -0600)
Crockett

Weather History for KDKR - May, 2014

Change the Weather History Date:

Saturday, May 3, 2014

  Actual Average (KLFK) Record (KLFK)
Temperature  
Mean Temperature 68 °F -  
Max Temperature 87 °F 81 °F 94 °F (1943)
Min Temperature 48 °F 60 °F 43 °F (1929)
Cooling Degree Days 2    
Growing Degree Days 18 (Base 50)    
Moisture  
Dew Point 51 °F    
Average Humidity 60    
Maximum Humidity 93    
Minimum Humidity 24    
Precipitation  
Precipitation 0.00 in - - ()
Sea Level Pressure  
Sea Level Pressure 30.05 in    
Wind  
Wind Speed 2 mph (SW)    
Max Wind Speed 10 mph    
Max Gust Speed -    
Visibility 10 miles    
Events      
Averages and records for this station are not official NWS values.
T = Trace of Precipitation, MM = Missing Value Source: NWS Daily Summary

Daily Weather History Graph

Daily Weather History Graph

Search for Another Location

Airport or City:

Trip Planner

Search our weather history database for the weather conditions in past years. The results will help you decide how hot, cold, wet, or windy it might be!

Date:

Astronomy

May. 03, 2014 Rise Set
Actual Time 6:34 AM CDT 8:02 PM CDT
Civil Twilight 6:09 AM CDT 8:28 PM CDT
Nautical Twilight 5:38 AM CDT 8:59 PM CDT
Astronomical Twilight 5:05 AM CDT 9:31 PM CDT
Moon 10:08 AM CDT (5/3) No Moon Set
Length of Visible Light 14h 19m
Length of Day
13h 27m
Waxing Crescent, 20% of the Moon is Illuminated
May 3
Waxing Crescent
May 6
First Quarter
May 14
Full
May 21
Last Quarter
May 28
New

Hourly Weather History & Observations

Time (CDT) Temp. Heat Index Dew Point Humidity Pressure Visibility Wind Dir Wind Speed Gust Speed Precip Events Conditions
12:10 AM 55.4 °F - 50.0 °F 82% 30.02 in 10.0 mi Calm Calm - N/A   Clear
12:30 AM 53.6 °F - 50.0 °F 88% 30.02 in 10.0 mi Calm Calm - N/A   Clear
12:50 AM 53.6 °F - 48.2 °F 82% 30.02 in 10.0 mi Calm Calm - N/A   Clear
1:10 AM 53.6 °F - 48.2 °F 82% 30.02 in 10.0 mi Calm Calm - N/A   Clear
1:30 AM 53.6 °F - 48.2 °F 82% 30.02 in 10.0 mi Calm Calm - N/A   Clear
1:50 AM 53.6 °F - 48.2 °F 82% 30.02 in 10.0 mi Calm Calm - N/A   Clear
2:10 AM 53.6 °F - 48.2 °F 82% 30.02 in 10.0 mi Calm Calm - N/A   Clear
2:30 AM 53.6 °F - 48.2 °F 82% 30.02 in 10.0 mi Calm Calm - N/A   Clear
2:50 AM 53.6 °F - 48.2 °F 82% 30.02 in 10.0 mi Calm Calm - N/A   Clear
3:10 AM 53.6 °F - 46.4 °F 77% 30.01 in 10.0 mi Calm Calm - N/A   Clear
3:30 AM 51.8 °F - 46.4 °F 82% 30.02 in 10.0 mi Calm Calm - N/A   Clear
3:50 AM 51.8 °F - 46.4 °F 82% 30.02 in 10.0 mi Calm Calm - N/A   Clear
4:10 AM 51.8 °F - 46.4 °F 82% 30.02 in 10.0 mi Calm Calm - N/A   Clear
4:30 AM 50.0 °F - 46.4 °F 87% 30.02 in 10.0 mi Calm Calm - N/A   Clear
4:50 AM 50.0 °F - 46.4 °F 87% 30.02 in 10.0 mi Calm Calm - N/A   Clear
5:10 AM 48.2 °F - 46.4 °F 93% 30.02 in 10.0 mi Calm Calm - N/A   Clear
5:30 AM 48.2 °F - 46.4 °F 93% 30.03 in 10.0 mi Calm Calm - N/A   Clear
5:50 AM 48.2 °F - 46.4 °F 93% 30.03 in 10.0 mi Calm Calm - N/A   Clear
6:10 AM 48.2 °F - 46.4 °F 93% 30.04 in 10.0 mi Calm Calm - N/A   Clear
6:30 AM 48.2 °F - 46.4 °F 93% 30.04 in 10.0 mi Calm Calm - N/A   Clear
6:50 AM 48.2 °F - 46.4 °F 93% 30.05 in 10.0 mi Calm Calm - N/A   Clear
7:10 AM 50.0 °F - 46.4 °F 87% 30.06 in 10.0 mi Calm Calm - N/A   Clear
7:30 AM 55.4 °F - 50.0 °F 82% 30.06 in 10.0 mi Calm Calm - N/A   Clear
7:50 AM 57.2 °F - 51.8 °F 82% 30.06 in 10.0 mi South 3.5 mph - N/A   Clear
8:10 AM 60.8 °F - 51.8 °F 72% 30.06 in 10.0 mi SSW 4.6 mph - N/A   Clear
8:30 AM 62.6 °F - 51.8 °F 68% 30.07 in 10.0 mi South 3.5 mph - N/A   Clear
8:50 AM 66.2 °F - 53.6 °F 64% 30.07 in 10.0 mi SSW 3.5 mph - N/A   Clear
9:10 AM 69.8 °F - 50.0 °F 49% 30.07 in 10.0 mi WSW 10.4 mph - N/A   Clear
9:50 AM 73.4 °F - 50.0 °F 44% 30.07 in 10.0 mi WSW 10.4 mph - N/A   Clear
10:10 AM 75.2 °F - 51.8 °F 44% 30.07 in 9.0 mi SW 9.2 mph - N/A   Clear
10:30 AM 77.0 °F - 50.0 °F 39% 30.08 in 10.0 mi WSW 10.4 mph - N/A   Clear
10:50 AM 77.0 °F - 48.2 °F 36% 30.08 in 10.0 mi WSW 8.1 mph - N/A   Light Drizzle
11:10 AM 78.8 °F - 50.0 °F 36% 30.08 in 9.0 mi SW 9.2 mph - N/A   Clear
11:30 AM 78.8 °F - 51.8 °F 39% 30.08 in 10.0 mi WSW 6.9 mph - N/A   Clear
11:50 AM 80.6 °F - 51.8 °F 37% 30.08 in 10.0 mi SSW 6.9 mph - N/A   Clear
12:10 PM 80.6 °F 80.3 °F 53.6 °F 39% 30.08 in 10.0 mi SSW 5.8 mph - N/A   Clear
12:30 PM 82.4 °F 81.4 °F 53.6 °F 37% 30.08 in 10.0 mi SW 6.9 mph - N/A   Clear
12:50 PM 82.4 °F 81.4 °F 53.6 °F 37% 30.08 in 10.0 mi SW 6.9 mph - N/A   Clear
1:10 PM 84.2 °F 82.8 °F 53.6 °F 35% 30.07 in 10.0 mi SSW 5.8 mph - N/A   Clear
1:30 PM 84.2 °F - 51.8 °F 33% 30.06 in 10.0 mi SSW 6.9 mph - N/A   Clear
1:50 PM 84.2 °F - 51.8 °F 33% 30.06 in 10.0 mi West 4.6 mph - N/A   Partly Cloudy
2:10 PM 86.0 °F - 50.0 °F 29% 30.05 in 9.0 mi SSW 5.8 mph - N/A   Partly Cloudy
2:30 PM 86.0 °F - 46.4 °F 25% 30.05 in 10.0 mi SW 4.6 mph - N/A   Clear
2:50 PM 87.8 °F - 48.2 °F 25% 30.04 in 10.0 mi SSW 6.9 mph - N/A   Clear
3:10 PM 87.8 °F - 50.0 °F 27% 30.03 in 10.0 mi West 9.2 mph - N/A   Clear
3:30 PM 87.8 °F - 48.2 °F 25% 30.03 in 9.0 mi Calm Calm - N/A   Clear
3:50 PM 87.8 °F - 51.8 °F 29% 30.03 in 10.0 mi SW 6.9 mph - N/A   Clear
4:10 PM 87.8 °F - 51.8 °F 29% 30.02 in 10.0 mi SSW 6.9 mph - N/A   Clear
4:30 PM 87.8 °F - 50.0 °F 27% 30.02 in 10.0 mi WSW 3.5 mph - N/A   Clear
4:50 PM 87.8 °F - 48.2 °F 25% 30.02 in 10.0 mi SSW 5.8 mph - N/A   Clear
5:10 PM 87.8 °F - 46.4 °F 24% 30.02 in 10.0 mi SW 6.9 mph - N/A   Clear
5:30 PM 87.8 °F - 48.2 °F 25% 30.03 in 10.0 mi SSW 3.5 mph - N/A   Clear
5:50 PM 87.8 °F - 46.4 °F 24% 30.03 in 10.0 mi Calm Calm - N/A   Clear
6:10 PM 87.8 °F - 50.0 °F 27% 30.03 in 10.0 mi SW 4.6 mph - N/A   Clear
6:30 PM 87.8 °F - 46.4 °F 24% 30.03 in 10.0 mi Calm Calm - N/A   Clear
6:50 PM 86.0 °F - 46.4 °F 25% 30.03 in 10.0 mi Calm Calm - N/A   Clear
7:10 PM 82.4 °F 84.6 °F 66.2 °F 58% 30.03 in 10.0 mi Calm Calm - N/A   Clear
7:30 PM 78.8 °F - 57.2 °F 47% 30.04 in 10.0 mi Calm Calm - N/A   Clear
7:50 PM 73.4 °F - 55.4 °F 53% 30.04 in 10.0 mi Calm Calm - N/A   Clear
8:10 PM 71.6 °F - 57.2 °F 60% 30.05 in 10.0 mi Calm Calm - N/A   Clear
8:30 PM 66.2 °F - 57.2 °F 73% 30.05 in 10.0 mi NNE 3.5 mph - N/A   Clear
8:50 PM 64.4 °F - 57.2 °F 77% 30.05 in 10.0 mi NNE 3.5 mph - N/A   Clear
9:10 PM 62.6 °F - 57.2 °F 82% 30.05 in 10.0 mi NNE 4.6 mph - N/A   Clear
9:30 PM 62.6 °F - 57.2 °F 82% 30.06 in 10.0 mi NE 3.5 mph - N/A   Clear
9:50 PM 62.6 °F - 55.4 °F 77% 30.06 in 10.0 mi Calm Calm - N/A   Clear
10:10 PM 60.8 °F - 55.4 °F 82% 30.07 in 10.0 mi Calm Calm - N/A   Clear
10:30 PM 60.8 °F - 55.4 °F 82% 30.08 in 10.0 mi Calm Calm - N/A   Clear
10:50 PM 62.6 °F - 55.4 °F 77% 30.08 in 10.0 mi Calm Calm - N/A   Clear
11:10 PM 60.8 °F - 55.4 °F 82% 30.08 in 10.0 mi Calm Calm - N/A   Clear
11:30 PM 60.8 °F - 55.4 °F 82% 30.08 in 10.0 mi Calm Calm - N/A   Clear
11:50 PM 60.8 °F - 53.6 °F 77% 30.09 in 10.0 mi South 4.6 mph - N/A   Clear